User: anonymous   Login
Location: Borkenes
(68.7830°N, 16.1830°E)
Time: 22:05:23
(UTC+01:00)
Language:

Vanguard 2 - Orbit

View from above orbital plane
View from above orbital plane
View from above satellite
View from above satellite

Ground track
Ground track

The orbit data is extracted from the following two-line orbital elements,

1    11U 59001A   19347.17224737  .00000262  00000-0  12113-3 0  9995
2    11  32.8809  38.5452 1468101 274.2580  69.2176 11.85637251594480
Epoch (UTC): 13 December 2019 04:08:02
Eccentricity: 0.1468101
inclination: 32.8809°
perigee height: 553 km
apogee height: 2938 km
right ascension of ascending node: 38.5452°
argument of perigee: 274.2580°
revolutions per day: 11.85637251
mean anomaly at epoch: 69.2176°
orbit number at epoch: 59448

The dashed part of the orbit path shows where the satellite is in the earth's shadow,  

DLR